Location: Newark
(48.4472°N, 1.4892°E)
Time: 02:08:54
(UTC+00:00)

Transit 4A - Pass Details

Date: 24 November 2019
Orbit: 870 x 974 km, 66.8° (Epoch: 14 December)

Event Time Altitude Azimuth Distance (km) Brightness Sun altitude
Exits shadow 02:38:28 14° 45° (NE) 2,255 10.4 -44.8°
Drops below altitude 10° 02:40:06 10° 60° (ENE) 2,548 10.8 -44.6°
Sets 02:43:33 0° 80° (E) 3,472 11.7 -44.1°
